Location: B
(0.0000°N, 0.0000°E)
Time: 00:03:26
(UTC+02:00)

Daily predictions for brighter satellites

Satellite Brightness Start Highest point End
(mag) Time Altitude Azimuth Time Altitude Azimuth Time Altitude Azimuth
Ariane H10-3 4.1 05:00:39 56° E 05:00:39 56° E 05:20:34 10° E
Cosmos 2297 Rocket 4.3 05:01:32 21° E 05:01:32 21° E 05:04:42 10° NE
ADEOS II 4.2 05:19:49 10° NE 05:23:40 21° ESE 05:25:07 19° SE
NOSS 3-1 (A) 4.2 05:42:17 37° N 05:42:17 37° N 05:45:54 10° NNE
SWIFT 3.9 05:49:58 33° ENE 05:49:58 33° ENE 05:52:22 10° ENE
Okean-O 4.0 05:49:48 10° N 05:52:09 31° N 05:52:09 31° N
PSLV R/B 4.5 05:51:18 10° NNE 05:54:23 45° NNE 05:54:23 45° NNE
SL-8 Rocket 3.9 05:55:41 52° S 05:57:20 83° E 06:03:31 10° N
Thor Agena Rocket 3.9 05:54:30 13° SSE 05:59:05 63° ENE 06:04:17 10° N
Cosmos 2366 rocket 4.4 05:57:29 18° SSE 06:02:10 60° E 06:08:14 10° NNE
SL-16 R/B 4.3 06:07:23 16° NW 06:07:23 16° NW 06:08:35 10° NW
ATLAS 2AS CENTAUR R/B 2.9 06:00:51 36° S 06:03:41 67° ESE 06:10:54 10° NNE
Cosmos 1959 Rocket 4.5 06:04:05 30° S 06:07:25 83° E 06:13:45 10° N
Cosmos 1295 Rocket 4.3 06:07:38 60° WSW 06:07:58 61° W 06:13:58 10° N
Cosmos 1782 Rocket 3.8 06:09:01 52° SSE 06:09:52 65° E 06:14:12 10° NNE
Ariane Rocket 4.2 06:05:36 10° NE 06:10:18 39° ESE 06:15:01 10° S
Nadezhda 3 Rocket 3.8 06:04:37 10° N 06:10:46 88° W 06:16:59 10° S
Cosmos 2227 Rocket 3.1 06:12:09 32° NW 06:12:09 32° NW 06:16:02 10° N
Okean 2 Rocket 3.6 06:10:25 33° SSE 06:12:09 56° E 06:16:29 10° NNE
Cosmos 1241 Rocket 4.3 06:11:11 54° SW 06:12:33 72° WNW 06:18:41 10° NNE
ARIANE 5 DEB (SYLDA) 3.5 06:17:24 45° WSW 06:19:08 71° S 06:22:12 10° E
Cosmos 1125 Rocket 4.3 06:20:44 33° WNW 06:20:44 33° WNW 06:24:38 10° NNW
Atlas Centaur 2 2.5 06:20:52 39° W 06:23:14 57° SW 06:28:59 10° SE
ARIANE 44L R/B 4.0 06:25:47 14° SE 06:25:47 14° SE 06:26:39 10° SE
Maqsat-H 2.9 06:25:00 23° NW 06:26:22 31° N 06:30:51 10° ENE
Cosmos 1238 Rocket 4.0 06:20:49 10° N 06:26:40 63° E 06:31:32 10° SSE
Cosmos 2360 Rocket 2.1 06:25:41 10° NNW 06:31:14 63° WSW 06:36:50 10° S
ARGOS Delta rocket 3.9 06:26:17 10° N 06:31:17 86° W 06:35:47 15° SSW
Lacrosse 5 rocket 2.0 06:30:16 10° NNW 06:34:49 63° ENE 06:39:22 10° SE
Palapa 6 Rocket 2.8 06:36:21 45° SW 06:37:21 65° SSE 06:41:38 10° ENE
Cosmos 1862 4.2 06:40:44 30° WNW 06:40:44 30° WNW 06:43:46 10° NNW
Cosmos 2297 Rocket 3.2 06:43:23 25° W 06:44:11 25° WNW 06:48:46 10° NNW
CZ-4B R/B 3.8 06:41:41 10° N 06:45:36 58° WNW 06:47:42 25° SSW
Cosmos 2322 4.0 06:40:42 10° NW 06:46:06 44° WSW 06:51:30 10° S
Cosmos 1782 2.7 06:43:58 10° NNW 06:47:53 61° W 06:51:48 10° S
Cosmos 2218 Rocket 4.5 06:44:39 22° SW 06:47:58 37° W 06:53:32 10° NNW
Meteor 2-19 Rocket 4.4 06:42:11 10° S 06:48:15 89° W 06:54:19 10° N
Iridium 4 Rocket 3.1 06:44:40 10° NNW 06:48:40 50° W 06:52:51 10° SSW
MOZ.5/SAFIR/RUBIN 5/SL-8 4.3 06:46:57 18° SSW 06:49:46 34° WSW 06:53:57 10° NW
Meteor 2-10 Rocket 3.7 06:45:13 10° NNW 06:50:16 51° W 06:55:34 10° S
Cosmos 389 Rocket 4.4 06:47:34 10° NW 06:48:51 17° WNW 06:48:51 17° WNW
Lacrosse 5 3.9 06:53:38 11° SSW 06:53:38 11° SSW 06:54:05 10° SSW
GPS 2-17 Rocket1 3.4 06:51:25 11° WNW 06:56:04 70° NNE 07:00:52 10° ESE
Cosmos 1378 Rocket 3.5 06:53:53 10° N 06:58:18 88° ENE 07:02:44 10° S
ARIANE 5 R/B 0.6 06:58:48 29° WSW 06:59:44 64° S 07:01:42 10° E
Cosmos 1975 Rocket 3.8 06:58:11 10° N 07:02:33 58° E 07:06:55 10° SSE
ADEOS II 3.2 06:58:55 10° NNW 07:03:07 25° WNW 07:06:04 15° WSW
Cosmos 2151 Rocket 3.5 06:59:10 10° S 07:03:38 80° W 07:08:02 10° N
Meteor 1-31 Rocket 3.9 07:02:26 10° NNW 07:05:39 25° W 07:07:49 16° SW
Cosmos 2333 Rocket 4.4 07:01:06 10° NNE 07:06:02 30° ENE 07:10:59 10° SE
Cosmos 1606 2.6 07:04:01 10° NNW 07:07:45 64° W 07:11:31 10° S
NOSS 2-3 (C) 3.7 07:03:40 10° SSW 07:08:35 79° WNW 07:13:18 10° NNE
ARIANE 5 DEB (SYLDA) 3.3 07:07:50 17° SSW 07:08:38 21° S 07:10:47 10° ESE
ARIANE 44L R/B 3.3 07:08:11 16° W 07:10:52 86° S 07:27:04 10° E
Delta 2 Rocket 4.4 07:06:19 12° SW 07:11:11 62° SE 07:16:54 10° ENE
IRS-1A Rocket 4.2 07:08:04 10° NNE 07:13:37 85° WNW 07:19:08 10° SSW
Cosmos 2227 4.2 07:10:07 10° SSW 07:15:43 69° WNW 07:21:17 10° N
ADEOS Rocket 3.4 07:10:52 10° NNW 07:15:51 34° WNW 07:20:44 10° SW
COSMOS 2428 2.8 07:10:48 10° NNW 07:16:17 53° WSW 07:21:49 10° S
SPOT 3 Rocket 4.1 07:16:25 10° NNE 07:21:34 64° ESE 07:26:44 10° S
Okean 3 3.5 07:20:15 10° NNW 07:24:22 56° W 07:28:34 10° S
Cosmos 1300 Rocket 4.1 07:22:27 10° S 07:26:48 63° E 07:31:05 10° NNE
TSX-5 4.3 07:24:33 10° SW 07:27:16 27° WNW 07:30:08 10° N
NOSS 2-3 (D) 4.1 07:23:38 10° SW 07:28:18 46° WNW 07:32:49 10° N
COBE Rocket 4.3 07:24:36 10° NNE 07:29:16 66° E 07:33:53 10° S
Cosmos 1184 Rocket 3.2 07:26:44 10° SSW 07:30:01 44° W 07:33:18 10° NNW
SWIFT 3.9 07:26:38 10° WNW 07:30:10 26° NNW 07:33:43 10° NE
COSMO-SKYMED 1 3.6 07:26:45 10° SSE 07:30:58 51° E 07:35:11 10° N
Longmarch 3A Rocket 0.6 07:30:19 10° WNW 07:32:04 74° SSW 07:35:38 10° ESE
CZ-3 Stage 3 1.3 07:30:16 10° NW 07:32:14 74° NNE 07:34:58 10° ESE
GPS 2-12 Rocket1 3.4 07:28:47 10° SW 07:33:08 52° SSE 07:37:27 10° E
MOS 1 Rocket 3.7 07:30:09 10° N 07:34:56 52° W 07:40:02 10° SSW
Cosmos 2237 Rocket 3.1 07:31:19 10° N 07:36:53 57° ENE 07:42:26 10° SSE
